User: anonymous   Login
Location: *
(2.5500°S, 65.9667°W)
Time: 16:04:56
(UTC+00:00)
Language:

Courier 1B Rocket - Orbit

View from above orbital plane
View from above orbital plane
View from above satellite
View from above satellite

Ground track
Ground track

The orbit data is extracted from the following two-line orbital elements,

1    59U 60013B   24104.50496633  .00000167  00000-0  10512-3 0  9997
2    59  28.2478 246.6600 0188916 124.1696 237.6913 13.53064437136325
Epoch (UTC): 13 April 2024 12:07:09
Eccentricity: 0.0188916
inclination: 28.2478°
perigee height: 920 km
apogee height: 1201 km
right ascension of ascending node: 246.6600°
argument of perigee: 124.1696°
revolutions per day: 13.53064437
mean anomaly at epoch: 237.6913°
orbit number at epoch: 13632

The dashed part of the orbit path shows where the satellite is in the earth's shadow,  

DLR